STARLINK-32266, 60369

Orbit data source: Space-Track

STARLINK-32266, 60369 is a payload satellite owned by SpaceX/Seattle (US) in LEO that was launched on Sun, 04 Aug 2024 UTC via an FALCON 9 launch vehicle from the Air Force Western Test Range (AFWTR). Payload-class satellites include a variety of spacecraft equipped with specific instruments for various scientific and technological missions. These include communications satellites like Starlink; space stations such as the ISS; scientific satellites like the Hubble; Earth observation satellites from companies like Planet Labs, Umbra, and HawkEye 360; GPS; miniature CubeSats for education and research; and military/defense satellites.

Loading next visibility...
Identifier
60369, 2024-138Q
Orbit
LEO
Country
Flag of USUS
Related business
Manufacturer
SpaceX/Seattle
Mission
Partially operational Commercial Communications
Bus & Motor
STARLINK V2M, Unknown motor
Mass
730 kg wet, ~700 kg dry
Launch date (UTC)
2024-08-04 (1 year ago)
Launch vehicle
FALCON 9
Launch site
Air Force Western Test Range (AFWTR)
Object type
Payload
Rocket body
Debris
Shape & HBR
Box + 2 Pan, 17.7 m
Radar Cross Section
33.884 m², Large (>1 m²)

Expand to show TLE details & history
Last TLE update: 9 hours ago

TLE from 9 hours ago
0 STARLINK-32266
1 60369U 24138Q   25353.91668981  .00149244  00000-0  28374-2 0  9998
2 60369  53.1486 304.9651 0013010 111.7827 266.2769 15.47164599  5928
Epoch: 2025-12-19T22:00Z
TLE epoch observation values (Epoch: 2025-12-19T22:00:01.999Z)
Latitude
14.25491°
Longitude
-102.87899°
Altitude
425.779 km
Speed
7.658 km/s
True Right ascension
21h 03m 31s
True Declination
14° 10' 09"
Sunlit
Object was in daylight at epoch
Visualization orbit readout
Latitude
Unknown
Longitude
Unknown
Altitude
Unknown
Speed
Unknown
Apparent Right ascension
Unknown
Apparent Declination
Unknown
Sunlit
N/A
Visualization observer readout
Local Sidereal Time
06:16:39
Azimuth
Unknown
Elevation
Unknown
Doppler factor
Unknown
Orbital elements
Apogee altitude
434.137 km
Perigee altitude
416.434 km
Semi-major axis
6,803.422 km
Eccentricity
0.0013
Inclination
53.1486°
RAAN
304.9651°
Arg. of periapsis
111.7827°
True anomaly
266.12815°
Mean anomaly
266.2769°
Eccentric anomaly
266.20252°
Mean motion
3.86769 °/min
Orbital period
93.08 mins
BSTAR
0.0028374
Loading maneuver chart data...
Computing Atmospheric mass density...
Loading historical data...
Loading historical data...
Loading historical data...
Loading historical data...
Loading historical data...
Loading historical data...
Loading historical data...

Documentation

Showing up to 5 results
|